Location: Fazenda Monte Alegre
(4.8500°S, 38.0333°W)
Time: 14:47:05
(UTC+00:00)

GPS 2-18 Rocket1 - Pass Details

Date: 24 September 2020
Orbit: 458 x 515 km, 20.9° (Epoch: 19 October)

Event Time Altitude Azimuth Distance (km) Brightness Sun altitude
Rises 21:26:13 0° 251° (WSW) 2,500 8.2 -15.4°
Reaches altitude 10° 21:28:26 10° 253° (WSW) 1,613 6.9 -16.0°
Maximum altitude 21:32:08 73° 338° (NNW) 481 3.0 -16.9°
Enters shadow 21:33:24 38° 54° (NE) 713 3.5 -17.2°
